This is the latest recevied weather packets stored in our database for station/object IT9FBN-3. If no packets are shown the sender has not sent any weather packets the latest 10 day(s).
| Time | Temp. | Humidity | Pressure | Rain* | Wind** | Luminosity | Snow |
|---|---|---|---|---|---|---|---|
| 1777536903 | 19.44° C | 52% | 1016.9 hPa | 0 mm | - | - | - |
| 1777535703 | 18.89° C | 51% | 1016.9 hPa | 0 mm | - | - | - |
| 1777535103 | 18.89° C | 53% | 1017 hPa | 0 mm | - | - | - |
| 1777534802 | 18.89° C | 52% | 1017.1 hPa | 0 mm | - | - | - |
| 1777534503 | 19.44° C | 51% | 1017 hPa | 0 mm | - | - | - |
| 1777534202 | 20° C | 47% | 1017 hPa | 0 mm | - | - | - |
| 1777533902 | 20° C | 48% | 1017 hPa | 0 mm | - | - | - |
| 1777533603 | 19.44° C | 47% | 1017 hPa | 0 mm | - | - | - |
| 1777533303 | 19.44° C | 47% | 1016.9 hPa | 0 mm | - | - | - |
| 1777533003 | 19.44° C | 52% | 1016.7 hPa | 0 mm | - | - | - |
| 1777532702 | 18.89° C | 52% | 1016.7 hPa | 0 mm | - | - | - |
| 1777532403 | 18.89° C | 51% | 1016.9 hPa | 0 mm | - | - | - |
| 1777532103 | 19.44° C | 47% | 1016.9 hPa | 0 mm | - | - | - |
| 1777531803 | 19.44° C | 46% | 1016.9 hPa | 0 mm | - | - | - |
| 1777530902 | 18.89° C | 53% | 1016.7 hPa | 0 mm | - | - | - |
| 1777530603 | 18.89° C | 53% | 1016.7 hPa | 0 mm | - | - | - |
| 1777530303 | 18.89° C | 51% | 1016.8 hPa | 0 mm | - | - | - |
| 1777530003 | 18.89° C | 52% | 1016.9 hPa | 0 mm | - | - | - |
| 1777529702 | 18.33° C | 52% | 1016.7 hPa | 0 mm | - | - | - |
| 1777529402 | 17.78° C | 52% | 1016.7 hPa | 0 mm | - | - | - |
| 1777529103 | 17.78° C | 55% | 1016.8 hPa | 0 mm | - | - | - |
| 1777528803 | 17.22° C | 56% | 1016.7 hPa | 0 mm | - | - | - |
| 1777528502 | 16.67° C | 57% | 1016.6 hPa | 0 mm | - | - | - |
| 1777528203 | 16.11° C | 59% | 1016.6 hPa | 0 mm | - | - | - |
| 1777527903 | 16.11° C | 60% | 1016.8 hPa | 0 mm | - | - | - |
* Rain latest hour (hover to see other rain measurements)
** Current wind speed in m/s (hover to see current wind gust speed)